SL-14 DEB, 45289

Orbit data source: Space-Track

SL-14 DEB, 45289 is space debris in LEO originally from a launch on Thu, 15 Aug 1991 UTC launched from the Plesetsk Missile And Space Complex (PKMTR). Debris objects in space refer to the collection of defunct objects orbiting the Earth. Examples of debris include non-operational satellites, rocket bodies, and fragments generated from explosions, collisions, or faulty payload assembly.

Loading next visibility...
Identifier
45289, 1991-056AB
Orbit
LEO
Country
Flag of CISCIS
Related business
Manufacturer
Unknown
Mission
Spacecraft
Bus & Motor
Unknown
Mass
Unknown
Launch date (UTC)
1991-08-15 (35 years ago)
Launch vehicle
Unknown
Launch site
Plesetsk Missile And Space Complex (PKMTR)
Object type
Payload
Rocket body
Debris
Shape & HBR
Unknown shape, 0.2 m
Radar Cross Section
Medium (>0.1 m² and <1 m²)

Expand to show TLE details & history
Last TLE update: 1 week ago

TLE from 1 week ago
0 SL-14 DEB
1 45289U 91056AB  26154.58455871  .00000004  00000-0 -22702-4 0  9992
2 45289  82.5379 240.8743 0177576 249.1019 109.0996 12.83061910294517
Epoch: 2026-06-03T14:01Z
TLE epoch observation values (Epoch: 2026-06-03T14:01:45.872Z)
Latitude
0.00006°
Longitude
138.3921°
Altitude
1,378.885 km
Speed
7.148 km/s
True Right ascension
16h 03m 29s
True Declination
0° 00' 00"
Sunlit
Object was in full shadow at epoch
Visualization orbit readout
Latitude
Unknown
Longitude
Unknown
Altitude
Unknown
Speed
Unknown
Apparent Right ascension
Unknown
Apparent Declination
Unknown
Sunlit
N/A
Visualization observer readout
Local Sidereal Time
13:47:03
Azimuth
Unknown
Elevation
Unknown
Doppler factor
Unknown
Orbital elements
Apogee altitude
1,463.291 km
Perigee altitude
1,189.66 km
Semi-major axis
7,704.612 km
Eccentricity
0.01776
Inclination
82.5379°
RAAN
240.8743°
Arg. of periapsis
249.1019°
True anomaly
111.00823°
Mean anomaly
109.0996°
Eccentric anomaly
110.05534°
Mean motion
3.20935 °/min
Orbital period
112.17 mins
BSTAR
-0.000022702
Loading maneuver chart data...
Computing Atmospheric mass density...
Loading historical data...
Loading historical data...
Loading historical data...
Loading historical data...
Loading historical data...
Loading historical data...
Loading historical data...

Documentation

Showing up to 5 results
|